DateTimeUTC,F1_A11,F1_S11,BsB_S11,BsG_S11,BsR_S11,BbsB_S11,BbsG_S11,BbsR_S11,BaB_A11,BaG_A11,BaR_A11,Tu_S11,T_S11,Uu_S11,U_S11,P_S11,T1_A11
2021-09-30T19:00:00Z,00000200,21000000,,,,,,,0000.10,-000.34,-000.12,16.7,24.2,,00.0,0672.9,31.0
2021-09-30T19:01:00Z,00000200,21000000,,,,,,,0000.25,0000.04,0000.49,16.8,24.2,,00.0,0672.9,31.0
2021-09-30T19:02:00Z,00000200,21000000,,,,,,,0000.23,0000.62,0000.04,16.8,24.2,,00.0,0672.9,30.9
2021-09-30T19:03:00Z,00000200,61000000,,,,,,,0013.78,0012.55,0009.26,16.8,24.2,,00.0,0672.9,31.0
2021-09-30T19:04:00Z,00000200,41000000,0002.04,0001.08,0001.01,0000.41,0000.44,0000.11,0029.07,0026.02,0019.95,17.2,24.1,,00.0,0674.0,31.0
2021-09-30T19:05:00Z,00000200,01000000,0001.42,0001.03,0000.80,0000.73,0000.62,0000.07,0032.30,0029.01,0022.08,17.3,24.1,,00.0,0674.1,31.0
2021-09-30T19:06:00Z,00000200,01000000,0001.76,0001.17,0000.83,0000.89,0000.22,0000.20,0034.73,0031.07,0023.37,17.2,24.1,,00.0,0674.1,31.0
2021-09-30T19:07:00Z,00000200,01000000,0001.12,0000.61,0000.45,0000.69,0000.74,-000.03,0025.33,0022.98,0017.82,17.2,24.0,,00.0,0674.1,31.0
2021-09-30T19:08:00Z,00000200,01000000,0000.93,0000.03,0000.05,0000.37,-000.17,-000.17,0001.10,0001.42,0000.72,17.2,24.0,,00.0,0674.1,31.0
2021-09-30T19:09:00Z,00000200,01000000,0000.00,0000.35,0000.15,-000.27,0000.05,-000.19,0000.38,-000.02,0000.30,17.1,24.0,,00.0,0674.1,31.0
2021-09-30T19:10:00Z,00000200,01000000,0000.52,-000.03,0000.29,0000.19,0000.05,-000.12,0000.17,-000.02,-000.08,17.1,23.9,,00.0,0674.2,31.0
2021-09-30T19:11:00Z,00000200,01000000,0000.32,0000.30,0000.22,0000.68,0000.14,-000.04,0000.33,0000.54,0000.23,17.0,23.9,,00.0,0674.2,30.9
2021-09-30T19:12:00Z,00000200,01000000,-000.15,-000.12,0000.12,0000.19,-000.09,-000.34,0000.30,0000.24,0000.17,17.0,23.9,,00.0,0674.2,30.9
2021-09-30T19:13:00Z,00000200,01000000,0000.95,0000.03,0000.30,-000.25,0000.22,-000.20,0006.97,0006.27,0004.91,17.0,23.8,,00.0,0674.2,30.9
2021-09-30T19:14:00Z,00000200,01000000,0000.83,0000.75,0000.57,0000.85,0000.46,0000.19,0026.85,0024.32,0018.23,17.0,23.8,,00.0,0674.2,30.9
2021-09-30T19:15:00Z,00000200,01000000,0000.45,-000.27,0000.08,0000.62,0000.09,-000.36,0001.47,0001.15,0001.23,17.0,23.8,,00.0,0674.2,30.9
2021-09-30T19:16:00Z,00000200,01000000,0000.43,-000.05,0000.02,0000.31,-000.02,-000.13,0000.38,0000.70,0000.12,17.1,23.9,,00.0,0674.2,31.0
2021-09-30T19:17:00Z,00000200,01000000,-000.77,-000.21,0000.34,-000.52,0000.01,-000.16,-000.08,-000.39,0000.07,17.2,23.9,,00.0,0674.3,31.0
2021-09-30T19:18:00Z,00000200,01000000,-000.08,0000.27,0000.28,0000.19,0000.13,0000.16,0000.32,0000.35,0000.15,17.2,23.9,,00.0,0674.3,31.0
2021-09-30T19:19:00Z,00000200,01000000,-000.32,0000.01,0000.34,-000.11,-000.00,-000.08,0000.09,0000.03,0000.04,17.2,24.0,,00.0,0674.3,31.0
2021-09-30T19:20:00Z,00000200,01000000,0001.00,-000.05,0000.06,0000.72,0000.31,0000.03,0000.11,0000.03,-000.16,17.2,23.9,,00.0,0674.3,31.0
2021-09-30T19:21:00Z,00000200,01000000,0000.25,0000.11,0000.15,0000.17,-000.16,-000.30,0000.25,0000.08,0000.24,17.2,23.9,,00.0,0674.3,31.0
2021-09-30T19:22:00Z,00000200,01000000,-000.27,-000.18,0000.09,0000.61,-000.11,-000.31,-000.10,-000.11,-000.12,17.1,23.9,,00.0,0674.3,31.0
2021-09-30T19:23:00Z,00000200,01000000,0001.09,-000.03,0000.30,-000.29,0000.17,-000.20,0000.35,0000.38,0000.19,17.1,23.9,,00.0,0674.3,31.0
2021-09-30T19:24:00Z,00000200,01000000,0000.56,-000.05,0000.09,0000.03,0000.05,-000.33,-000.17,0000.16,-000.15,17.0,23.8,,00.0,0674.3,31.0
2021-09-30T19:25:00Z,00000200,01000000,0000.37,-000.14,0000.21,-000.30,-000.26,-000.22,0000.26,0000.02,0000.05,17.0,23.8,,00.0,0674.3,30.9
2021-09-30T19:26:00Z,00000200,01000000,0000.26,0000.13,0000.15,0000.24,0000.03,0000.01,0000.35,0000.14,0000.25,16.9,23.8,,00.0,0674.3,30.9
2021-09-30T19:27:00Z,00000200,01000000,0000.51,0000.02,0000.04,0000.86,0000.07,-000.14,0000.21,-000.22,0000.01,16.9,23.8,,00.0,0674.2,30.9
2021-09-30T19:28:00Z,00000200,01000000,0000.32,0000.24,0000.18,0000.49,-000.15,-000.17,0003.00,0002.98,0002.34,16.9,23.7,,00.0,0674.2,30.9
2021-09-30T19:29:00Z,00000200,01000000,0001.34,0000.78,0000.59,-000.34,0000.10,0000.16,0020.43,0018.82,0013.64,16.9,23.7,,00.0,0674.2,30.9
2021-09-30T19:30:00Z,00000200,01000000,0001.22,0000.60,0000.16,0000.10,0000.31,-000.09,0026.73,0023.95,0018.38,16.9,23.7,,00.0,0674.3,30.9
2021-09-30T19:31:00Z,00000200,01000000,0001.35,0000.56,0000.59,0001.15,0000.14,-000.05,0026.54,0023.73,0018.05,17.0,23.8,,00.0,0674.3,30.9
2021-09-30T19:32:00Z,00000200,01000000,0001.53,0000.57,0000.38,0001.11,-000.17,-000.05,0016.84,0015.18,0011.75,17.1,23.8,,00.0,0674.2,31.0
2021-09-30T19:33:00Z,00000200,01000000,0000.14,-000.05,0000.01,0000.13,-000.06,-000.53,0003.78,0003.61,0002.35,17.2,23.8,,00.0,0674.2,31.0
2021-09-30T19:34:00Z,00000200,01000000,0000.29,0000.13,-000.02,0000.33,-000.11,-000.33,0000.35,0000.46,0000.93,17.3,23.9,,00.0,0674.2,31.0
2021-09-30T19:35:00Z,00000200,01000000,0000.10,0000.04,0000.05,0000.45,0000.04,-000.39,0000.37,0000.38,-000.06,17.3,23.9,,00.0,0674.2,31.0
2021-09-30T19:36:00Z,00000200,01000000,-000.55,-000.17,0000.12,0000.79,0000.03,-000.13,0000.21,-000.14,-000.16,17.3,23.9,,00.0,0674.2,31.0
2021-09-30T19:37:00Z,00000200,01000000,0000.19,-000.16,0000.45,0000.10,0000.08,-000.35,-000.04,-000.02,-000.13,17.2,23.9,,00.0,0674.2,31.0
2021-09-30T19:38:00Z,00000200,01000000,-000.29,0000.11,0000.12,0000.11,-000.14,-000.25,0000.33,0000.26,0000.49,17.2,23.9,,00.0,0674.2,31.0
2021-09-30T19:39:00Z,00000200,01000000,-000.12,0000.18,-000.05,0000.49,-000.14,-000.17,0000.16,0000.11,0000.32,17.1,23.8,,00.0,0674.2,30.9
2021-09-30T19:40:00Z,00000200,01000000,0000.33,-000.22,0000.40,0000.36,-000.01,-000.37,0000.20,-000.09,-000.10,17.1,23.8,,00.0,0674.1,30.9
2021-09-30T19:41:00Z,00000200,01000000,0000.30,-000.07,0000.29,0000.42,0000.02,-000.32,0000.19,0000.36,0000.12,17.0,23.8,,00.0,0674.1,30.9
2021-09-30T19:42:00Z,00000200,01000000,-000.29,-000.00,-000.09,-000.08,0000.01,-000.40,0000.16,0000.23,0000.35,16.9,23.7,,00.0,0674.1,30.9
2021-09-30T19:43:00Z,00000200,01000000,-000.19,0000.11,0000.12,0000.17,-000.10,-000.34,0000.27,0000.03,-000.35,16.9,23.7,,00.0,0674.1,30.9
2021-09-30T19:44:00Z,00000200,01000000,0000.10,-000.32,-000.11,0000.30,-000.19,-000.22,0000.32,0000.12,0000.62,16.9,23.7,,00.0,0674.1,30.9
2021-09-30T19:45:00Z,00000200,01000000,0000.50,0000.27,0000.31,0000.45,-000.29,-000.24,0000.11,0000.35,-000.04,17.0,23.7,,00.0,0674.1,30.9
2021-09-30T19:46:00Z,00000200,01000000,0000.53,0000.13,0000.42,0000.32,-000.16,0000.08,0000.13,0000.31,-000.23,17.1,23.7,,00.0,0674.1,30.9
2021-09-30T19:47:00Z,00000200,01000000,0000.62,-000.07,0000.07,-000.21,-000.32,-000.16,0000.54,0000.27,0000.36,17.1,23.8,,00.0,0674.1,30.9
2021-09-30T19:48:00Z,00000200,01000000,0000.81,-000.11,-000.20,0000.59,-000.26,-000.29,-000.06,0000.38,0000.37,17.2,23.8,,00.0,0674.1,31.0
2021-09-30T19:49:00Z,00000200,01000000,0000.23,-000.06,0000.15,-000.41,0000.00,-000.40,0000.28,-000.02,0000.04,17.3,23.8,,00.0,0674.1,31.0
2021-09-30T19:50:00Z,00000200,01000000,-000.48,-000.19,0000.13,0000.54,-000.09,-000.51,-000.18,-000.24,0000.28,17.3,23.9,,00.0,0674.1,31.0
2021-09-30T19:51:00Z,00000200,01000000,-000.17,0000.04,0000.20,0000.23,0000.10,-000.31,0000.03,0000.26,-000.50,17.3,23.9,,00.0,0674.1,31.0
2021-09-30T19:52:00Z,00000200,01000000,-000.00,0000.07,0000.08,0000.62,-000.23,-000.04,0000.20,-000.22,0000.13,17.2,23.8,,00.0,0674.1,31.0
2021-09-30T19:53:00Z,00000200,01000000,0000.06,0000.16,0000.30,0000.52,-000.05,0000.07,0000.05,0000.18,-000.05,17.2,23.8,,00.0,0674.1,31.0
2021-09-30T19:54:00Z,00000200,01000000,-000.92,0000.05,0000.13,0000.60,0000.20,-000.16,0000.43,0000.10,0000.25,17.1,23.8,,00.0,0674.1,31.0
2021-09-30T19:55:00Z,00000200,01000000,0000.05,-000.10,-000.02,0000.06,0000.14,-000.30,-000.32,0000.04,0000.04,17.1,23.8,,00.0,0674.1,30.9
2021-09-30T19:56:00Z,00000200,01000000,0000.95,0000.09,0000.15,0000.30,-000.21,-000.34,0003.83,0003.04,0002.25,17.0,23.7,,00.0,0674.1,30.9
2021-09-30T19:57:00Z,00000200,41000000,,,,,,,0006.03,0005.77,0004.34,17.1,23.8,,00.0,0674.2,30.9
2021-09-30T19:58:00Z,00000200,61000000,,,,,,,-000.29,-000.17,-000.33,16.6,23.9,,00.0,0673.1,30.9
2021-09-30T19:59:00Z,00000200,21000000,,,,,,,-000.03,-000.02,0000.19,16.6,24.0,,00.0,0673.1,30.9
